Date String (YYYY-MM-DD hh:mm:ss) UTC,Instrument flags,absolute air pressure of the measurement (hPa),sample flow rate (lpm),inlet stack bypass flow (lpm),air temperature of the measurement (°C),ambient temperature measured by the external sensor (°C),aerosol sample conditioner tube jacket temperature (°C),OPC LED temperature (°C),internal box temperature (°C),relative humidity of the measurement (%),span deviation,mass concentration of particles derived from Lorenz-Mie calculation of OPC scattering (μg/m³),mass concentration of particles derived from Lorenz-Mie calculation of OPC scattering (μg/m³),mass concentration of particles derived from Lorenz-Mie calculation of OPC scattering (μg/m³)
DateTimeUTC,F1_M11,P_M11,Q1_M11,Q2_M11,T1_M11,T2_M11,T3_M11,T4_M11,T5_M11,U1_M11,ZSPAN_M11,X0_M11,X2_M11,X1_M11
2024-03-23 08:00:00,SystemResetWarning,0825.4,5.00,000.00,023.6,022.8,000.0,032.2,025.5,16.2,0000.0,0017.90,0005.57,0004.02
2024-03-23 08:01:00,SystemResetWarning,0825.4,5.00,000.00,023.6,022.8,000.0,032.2,025.5,16.2,0000.0,0019.26,0005.63,0004.06
2024-03-23 08:02:00,SystemResetWarning,0825.4,5.01,000.00,023.6,022.8,000.0,032.2,025.5,16.5,0000.0,0018.70,0005.67,0004.06
2024-03-23 08:03:00,SystemResetWarning,0825.4,5.01,000.00,023.6,022.8,000.0,032.2,025.5,16.6,0000.0,0018.59,0005.69,0004.04
2024-03-23 08:04:00,SystemResetWarning,0825.4,5.01,000.00,023.6,022.8,000.0,032.2,025.5,16.5,0000.0,0018.04,0005.66,0004.00
2024-03-23 08:05:00,SystemResetWarning,0825.4,4.99,000.00,023.6,022.8,000.0,032.2,025.5,16.6,0000.0,0019.98,0005.65,0003.98
2024-03-23 08:06:00,SystemResetWarning,0825.3,4.99,000.00,023.6,022.8,000.0,032.2,025.5,16.5,0000.0,0020.59,0005.66,0003.96
2024-03-23 08:07:00,SystemResetWarning,0825.3,5.01,000.00,023.5,022.8,000.0,032.2,025.5,16.4,0000.0,0020.87,0005.63,0003.93
2024-03-23 08:08:00,SystemResetWarning,0825.3,5.02,000.00,023.5,022.8,000.0,032.2,025.5,16.3,0000.0,0021.08,0005.58,0003.91
2024-03-23 08:09:00,SystemResetWarning,0825.2,4.99,000.00,023.5,022.8,000.0,032.2,025.4,16.2,0000.0,0020.69,0005.53,0003.87
2024-03-23 08:10:00,SystemResetWarning,0825.2,4.99,000.00,023.5,022.8,000.0,032.2,025.4,16.1,0000.0,0020.25,0005.53,0003.85
2024-03-23 08:11:00,SystemResetWarning,0825.3,4.99,000.00,023.5,022.8,000.0,032.2,025.4,15.9,0000.0,0019.95,0005.48,0003.80
2024-03-23 08:12:00,SystemResetWarning,0825.3,5.01,000.00,023.5,022.8,000.0,032.2,025.4,15.9,0000.0,0018.18,0005.38,0003.76
2024-03-23 08:13:00,SystemResetWarning,0825.2,5.00,000.00,023.5,022.8,000.0,032.2,025.4,15.9,0000.0,0018.67,0005.30,0003.72
2024-03-23 08:14:00,SystemResetWarning,0825.2,5.01,000.00,023.5,022.8,000.0,032.2,025.4,16.0,0000.0,0018.97,0005.19,0003.70
2024-03-23 08:15:00,SystemResetWarning,0825.3,5.00,000.00,023.5,022.8,000.0,032.2,025.4,16.1,0000.0,0019.14,0005.18,0003.68
2024-03-23 08:16:00,SystemResetWarning,0825.2,5.00,000.00,023.5,022.8,000.0,032.2,025.4,16.1,0000.0,0017.45,0005.12,0003.65
2024-03-23 08:17:00,SystemResetWarning,0825.2,5.00,000.00,023.5,022.7,000.0,032.2,025.4,16.1,0000.0,0017.28,0005.13,0003.63
2024-03-23 08:18:00,SystemResetWarning,0825.2,5.00,000.00,023.5,022.7,000.0,032.2,025.4,16.2,0000.0,0017.66,0005.12,0003.58
2024-03-23 08:19:00,SystemResetWarning,0825.2,5.00,000.00,023.5,022.7,000.0,032.1,025.4,16.3,0000.0,0017.51,0005.06,0003.52
2024-03-23 08:20:00,SystemResetWarning,0825.1,4.99,000.00,023.5,022.7,000.0,032.1,025.4,16.3,0000.0,0018.19,0004.98,0003.47
2024-03-23 08:21:00,SystemResetWarning,0825.1,5.00,000.00,023.5,022.7,000.0,032.1,025.4,16.2,0000.0,0018.39,0004.91,0003.41
2024-03-23 08:22:00,SystemResetWarning,0825.1,5.01,000.00,023.5,022.7,000.0,032.1,025.4,16.2,0000.0,0018.34,0004.91,0003.38
2024-03-23 08:23:00,SystemResetWarning,0825.1,5.01,000.00,023.5,022.7,000.0,032.1,025.4,16.2,0000.0,0019.63,0004.90,0003.33
2024-03-23 08:24:00,SystemResetWarning,0825.1,5.00,000.00,023.5,022.7,000.0,032.1,025.4,16.2,0000.0,0019.47,0004.88,0003.30
2024-03-23 08:25:00,SystemResetWarning,0825.1,5.00,000.00,023.5,022.7,000.0,032.1,025.3,16.1,0000.0,0018.53,0004.83,0003.27
2024-03-23 08:26:00,SystemResetWarning,0825.1,5.01,000.00,023.4,022.7,000.0,032.1,025.3,16.0,0000.0,0018.68,0004.79,0003.25
2024-03-23 08:27:00,SystemResetWarning,0825.1,5.00,000.00,023.4,022.7,000.0,032.1,025.3,16.1,0000.0,0018.57,0004.74,0003.22
2024-03-23 08:28:00,SystemResetWarning,0825.1,5.00,000.00,023.4,022.7,000.0,032.1,025.3,16.1,0000.0,0018.09,0004.67,0003.19
2024-03-23 08:29:00,SystemResetWarning,0825.0,4.99,000.00,023.4,022.7,000.0,032.1,025.3,16.0,0000.0,0017.42,0004.64,0003.17
2024-03-23 08:30:00,SystemResetWarning,0825.0,5.00,000.00,023.4,022.7,000.0,032.1,025.3,16.0,0000.0,0017.03,0004.57,0003.14
2024-03-23 08:31:00,SystemResetWarning,0825.0,5.00,000.00,023.4,022.7,000.0,032.1,025.3,16.0,0000.0,0016.45,0004.54,0003.11
2024-03-23 08:32:00,SystemResetWarning,0824.9,5.00,000.00,023.4,022.7,000.0,032.1,025.3,15.9,0000.0,0016.06,0004.49,0003.07
2024-03-23 08:33:00,SystemResetWarning,0824.9,4.99,000.00,023.4,022.7,000.0,032.1,025.3,15.8,0000.0,0016.84,0004.46,0003.02
2024-03-23 08:34:00,SystemResetWarning,0824.9,4.99,000.00,023.4,022.6,000.0,032.1,025.3,15.8,0000.0,0016.37,0004.47,0003.00
2024-03-23 08:35:00,SystemResetWarning,0825.0,5.01,000.00,023.4,022.6,000.0,032.1,025.3,15.9,0000.0,0016.10,0004.46,0002.97
2024-03-23 08:36:00,SystemResetWarning,0825.0,5.01,000.00,023.4,022.6,000.0,032.0,025.3,15.8,0000.0,0017.32,0004.48,0002.95
2024-03-23 08:37:00,SystemResetWarning,0825.0,5.00,000.00,023.4,022.6,000.0,032.0,025.2,15.8,0000.0,0017.27,0004.47,0002.92
2024-03-23 08:38:00,SystemResetWarning,0825.0,5.00,000.00,023.4,022.6,000.0,032.0,025.2,15.9,0000.0,0017.26,0004.46,0002.93
2024-03-23 08:39:00,SystemResetWarning,0825.0,5.00,000.00,023.4,022.6,000.0,032.0,025.2,15.9,0000.0,0017.53,0004.45,0002.91
2024-03-23 08:40:00,SystemResetWarning,0824.9,5.00,000.00,023.4,022.6,000.0,032.0,025.2,15.9,0000.0,0017.77,0004.39,0002.89
2024-03-23 08:41:00,SystemResetWarning,0824.9,5.00,000.00,023.3,022.6,000.0,032.0,025.2,15.9,0000.0,0017.39,0004.39,0002.88
2024-03-23 08:42:00,SystemResetWarning,0824.9,5.00,000.00,023.3,022.6,000.0,032.0,025.2,16.0,0000.0,0017.61,0004.42,0002.88
2024-03-23 08:43:00,SystemResetWarning,0824.9,5.00,000.00,023.3,022.6,000.0,032.0,025.2,16.1,0000.0,0018.22,0004.45,0002.88
2024-03-23 08:44:00,SystemResetWarning,0824.9,5.01,000.00,023.3,022.6,000.0,032.0,025.2,16.2,0000.0,0018.34,0004.43,0002.89
2024-03-23 08:45:00,SystemResetWarning,0824.9,5.00,000.00,023.3,022.6,000.0,032.0,025.2,16.2,0000.0,0017.60,0004.35,0002.87
2024-03-23 08:46:00,SystemResetWarning,0824.9,4.99,000.00,023.3,022.6,000.0,032.0,025.2,16.3,0000.0,0017.07,0004.31,0002.86
2024-03-23 08:47:00,SystemResetWarning,0824.9,5.00,000.00,023.3,022.6,000.0,032.0,025.2,16.3,0000.0,0017.67,0004.31,0002.83
2024-03-23 08:48:00,SystemResetWarning,0824.9,5.00,000.00,023.3,022.6,000.0,032.0,025.2,16.2,0000.0,0017.46,0004.29,0002.80
2024-03-23 08:49:00,SystemResetWarning,0824.9,5.00,000.00,023.3,022.6,000.0,032.0,025.2,16.2,0000.0,0016.79,0004.27,0002.77
2024-03-23 08:50:00,SystemResetWarning,0824.8,5.00,000.00,023.3,022.5,000.0,032.0,025.2,16.2,0000.0,0016.32,0004.23,0002.74
2024-03-23 08:51:00,SystemResetWarning,0824.8,5.00,000.00,023.3,022.5,000.0,031.9,025.1,16.1,0000.0,0016.24,0004.30,0002.75
2024-03-23 08:52:00,SystemResetWarning,0824.7,5.01,000.00,023.3,022.5,000.0,031.9,025.1,16.0,0000.0,0016.53,0004.31,0002.71
2024-03-23 08:53:00,SystemResetWarning,0824.7,5.00,000.00,023.3,022.5,000.0,031.9,025.1,15.9,0000.0,0018.33,0004.32,0002.72
2024-03-23 08:54:00,SystemResetWarning,0824.7,5.00,000.00,023.3,022.5,000.0,031.9,025.1,15.8,0000.0,0018.58,0004.33,0002.73
2024-03-23 08:55:00,SystemResetWarning,0824.7,5.00,000.00,023.3,022.5,000.0,031.9,025.1,15.7,0000.0,0018.17,0004.35,0002.76
2024-03-23 08:56:00,SystemResetWarning,0824.7,5.00,000.00,023.3,022.4,000.0,031.9,025.1,15.6,0000.0,0019.42,0004.40,0002.78
2024-03-23 08:57:00,SystemResetWarning,0824.7,5.00,000.00,023.2,022.4,000.0,031.9,025.1,15.6,0000.0,0019.64,0004.39,0002.81
2024-03-23 08:58:00,SystemResetWarning,0824.7,5.00,000.00,023.2,022.5,000.0,031.9,025.1,15.6,0000.0,0020.06,0004.41,0002.84
2024-03-23 08:59:00,SystemResetWarning,0824.7,5.00,000.00,023.2,022.5,000.0,031.9,025.1,15.7,0000.0,0019.42,0004.41,0002.87
